This is the latest recevied weather packets stored in our database for station/object W5GGH. If no packets are shown the sender has not sent any weather packets the latest 1 day(s).
| Time | Temp. | Humidity | Pressure | Rain* | Wind** | Luminosity | Snow |
|---|---|---|---|---|---|---|---|
| 1777998937 | 27.78° C | 68% | 1022.1 hPa | 0 mm | 0.45 m/s, 49° | 452 W/m² | - |
| 1777998633 | 27.78° C | 70% | 1021.9 hPa | 0 mm | 0 m/s | 518 W/m² | - |
| 1777998332 | 27.22° C | 71% | 1021.9 hPa | 0 mm | 0.89 m/s, 75° | 661 W/m² | - |
| 1777998029 | 26.67° C | 71% | 1021.9 hPa | 0 mm | 0.45 m/s, 115° | 536 W/m² | - |
| 1777997726 | 26.67° C | 72% | 1021.7 hPa | 0 mm | 0.89 m/s, 310° | 396 W/m² | - |
| 1777997423 | 26.67° C | 71% | 1021.8 hPa | 0 mm | 1.34 m/s, 171° | 395 W/m² | - |
| 1777997121 | 26.67° C | 71% | 1021.8 hPa | 0 mm | 0.45 m/s, 13° | 388 W/m² | - |
| 1777996818 | 26.67° C | 71% | 1022 hPa | 0 mm | 1.34 m/s, 345° | 335 W/m² | - |
| 1777996514 | 26.67° C | 73% | 1022 hPa | 0 mm | 0.89 m/s, 52° | 379 W/m² | - |
| 1777996211 | 26.11° C | 74% | 1021.8 hPa | 0 mm | 0.45 m/s, 96° | 618 W/m² | - |
| 1777995907 | 25.56° C | 75% | 1021.9 hPa | 0 mm | 0.89 m/s, 136° | 417 W/m² | - |
| 1777995603 | 25.56° C | 75% | 1021.8 hPa | 0 mm | 0 m/s | 339 W/m² | - |
| 1777995301 | 25° C | 76% | 1021.7 hPa | 0 mm | 1.34 m/s, 23° | 335 W/m² | - |
| 1777994997 | 25° C | 76% | 1022 hPa | 0 mm | 0.89 m/s, 71° | 284 W/m² | - |
| 1777994695 | 25° C | 76% | 1021.9 hPa | 0 mm | 1.34 m/s, 18° | 322 W/m² | - |
| 1777994390 | 25° C | 76% | 1022.1 hPa | 0 mm | 0.89 m/s, 30° | 237 W/m² | - |
| 1777994085 | 25° C | 76% | 1021.9 hPa | 0 mm | 0.89 m/s, 126° | 212 W/m² | - |
| 1777993783 | 25° C | 77% | 1021.9 hPa | 0 mm | 0.45 m/s, 5° | 221 W/m² | - |
| 1777993480 | 25° C | 76% | 1021.9 hPa | 0 mm | 0.45 m/s, 133° | 326 W/m² | - |
| 1777993179 | 25° C | 78% | 1021.7 hPa | 0 mm | 0.89 m/s, 27° | 377 W/m² | - |
| 1777992877 | 24.44° C | 78% | 1022 hPa | 0 mm | 0.45 m/s, 40° | 342 W/m² | - |
| 1777992575 | 24.44° C | 79% | 1021.8 hPa | 0 mm | 0 m/s | 277 W/m² | - |
| 1777992273 | 23.89° C | 80% | 1021.9 hPa | 0 mm | 0.45 m/s, 29° | 244 W/m² | - |
| 1777991970 | 23.89° C | 80% | 1022 hPa | 0 mm | 0.89 m/s, 334° | 223 W/m² | - |
| 1777991668 | 23.89° C | 81% | 1021.9 hPa | 0 mm | 0.89 m/s, 60° | 276 W/m² | - |
* Rain latest hour (hover to see other rain measurements)
** Current wind speed in m/s (hover to see current wind gust speed)